Time,TemperatureF,DewpointF,PressureIn,WindDirection,WindDirectionDegrees,WindSpeedMPH,WindSpeedGustMPH,Humidity,HourlyPrecipIn,Conditions,Clouds,dailyrainin,SolarRadiationWatts/m^2,SoftwareType,DateUTC
2013-01-10 00:02:00,30.0,21.4,30.23,ENE,57,0.0,0.0,70,0.00,,,0.00,0,Wunderground v.1.15,2013-01-09 22:02:00,
2013-01-10 00:12:00,30.0,21.1,30.22,ENE,57,0.0,0.0,69,0.00,,,0.00,0,Wunderground v.1.15,2013-01-09 22:12:00,
2013-01-10 00:22:00,30.2,21.2,30.22,ENE,57,1.0,1.0,69,0.00,,,0.00,0,Wunderground v.1.15,2013-01-09 22:22:00,
2013-01-10 00:32:00,30.3,21.0,30.22,NE,55,1.0,1.0,68,0.00,,,0.00,0,Wunderground v.1.15,2013-01-09 22:32:00,
2013-01-10 00:42:00,30.2,20.9,30.22,NE,55,0.0,0.0,68,0.00,,,0.00,0,Wunderground v.1.15,2013-01-09 22:42:00,
2013-01-10 01:02:00,30.4,21.1,30.22,NE,55,0.0,0.0,68,0.00,,,0.00,0,Wunderground v.1.15,2013-01-09 23:02:00,
2013-01-10 01:12:00,30.4,20.4,30.22,NE,55,0.0,1.0,66,0.00,,,0.00,0,Wunderground v.1.15,2013-01-09 23:12:00,
2013-01-10 01:22:00,30.6,20.9,30.22,ENE,65,1.0,1.0,67,0.00,,,0.00,0,Wunderground v.1.15,2013-01-09 23:22:00,
2013-01-10 01:32:00,30.6,20.6,30.22,ENE,65,1.0,1.0,66,0.00,,,0.00,0,Wunderground v.1.15,2013-01-09 23:32:00,
2013-01-10 01:42:00,30.6,20.9,30.21,ENE,65,1.0,1.0,67,0.00,,,0.00,0,Wunderground v.1.15,2013-01-09 23:42:00,
2013-01-10 01:52:00,30.6,20.9,30.22,ENE,65,0.0,0.0,67,0.00,,,0.00,0,Wunderground v.1.15,2013-01-09 23:52:00,
2013-01-10 02:02:00,30.5,20.8,30.22,ENE,65,0.0,0.0,67,0.00,,,0.00,0,Wunderground v.1.15,2013-01-10 00:02:00,
2013-01-10 02:12:00,30.5,21.2,30.22,ENE,65,0.0,0.0,68,0.00,,,0.00,0,Wunderground v.1.15,2013-01-10 00:12:00,
2013-01-10 02:22:00,30.7,21.4,30.22,ENE,65,0.0,0.0,68,0.00,,,0.00,0,Wunderground v.1.15,2013-01-10 00:22:00,
2013-01-10 02:32:00,30.5,22.5,30.22,ENE,65,0.0,0.0,72,0.00,,,0.00,0,Wunderground v.1.15,2013-01-10 00:32:00,
2013-01-10 02:52:00,30.1,21.2,30.22,East,80,1.0,2.0,69,0.00,,,0.00,0,Wunderground v.1.15,2013-01-10 00:52:00,
2013-01-10 03:02:00,30.0,21.4,30.22,ENE,76,1.0,1.0,70,0.00,,,0.00,0,Wunderground v.1.15,2013-01-10 01:02:00,
2013-01-10 03:12:00,30.0,21.4,30.22,ENE,76,0.0,0.0,70,0.00,,,0.00,0,Wunderground v.1.15,2013-01-10 01:12:00,
2013-01-10 03:22:00,30.1,21.5,30.22,ENE,76,0.0,0.0,70,0.00,,,0.00,0,Wunderground v.1.15,2013-01-10 01:22:00,
2013-01-10 03:32:00,30.1,21.5,30.22,ENE,76,0.0,0.0,70,0.00,,,0.00,0,Wunderground v.1.15,2013-01-10 01:32:00,
2013-01-10 03:42:00,29.7,21.8,30.21,ENE,76,0.0,0.0,72,0.00,,,0.00,0,Wunderground v.1.15,2013-01-10 01:42:00,
2013-01-10 03:52:00,29.3,21.7,30.21,ENE,76,0.0,0.0,73,0.00,,,0.00,0,Wunderground v.1.15,2013-01-10 01:52:00,
2013-01-10 04:02:00,29.1,21.5,30.20,ENE,76,0.0,0.0,73,0.00,,,0.00,0,Wunderground v.1.15,2013-01-10 02:02:00,
2013-01-10 04:12:00,29.1,21.8,30.20,ENE,76,0.0,0.0,74,0.00,,,0.00,0,Wunderground v.1.15,2013-01-10 02:12:00,
2013-01-10 04:22:00,29.4,21.8,30.20,ENE,76,0.0,0.0,73,0.00,,,0.00,0,Wunderground v.1.15,2013-01-10 02:22:00,
2013-01-10 04:32:00,29.7,22.1,30.19,ENE,76,0.0,0.0,73,0.00,,,0.00,0,Wunderground v.1.15,2013-01-10 02:32:00,
2013-01-10 04:42:00,29.7,22.1,30.19,ENE,76,0.0,0.0,73,0.00,,,0.00,0,Wunderground v.1.15,2013-01-10 02:42:00,
2013-01-10 04:52:00,30.0,22.1,30.19,ENE,76,0.0,0.0,72,0.00,,,0.00,0,Wunderground v.1.15,2013-01-10 02:52:00,
2013-01-10 05:02:00,30.1,22.2,30.19,ENE,76,0.0,0.0,72,0.00,,,0.00,0,Wunderground v.1.15,2013-01-10 03:02:00,
2013-01-10 05:12:00,30.4,22.1,30.19,ENE,76,0.0,0.0,71,0.00,,,0.00,0,Wunderground v.1.15,2013-01-10 03:12:00,
2013-01-10 05:22:00,30.4,22.1,30.19,ENE,76,0.0,0.0,71,0.00,,,0.00,0,Wunderground v.1.15,2013-01-10 03:22:00,
2013-01-10 05:32:00,30.4,22.1,30.19,ENE,76,0.0,0.0,71,0.00,,,0.00,0,Wunderground v.1.15,2013-01-10 03:32:00,
2013-01-10 05:42:00,30.5,22.5,30.18,ENE,76,0.0,0.0,72,0.00,,,0.00,0,Wunderground v.1.15,2013-01-10 03:42:00,
2013-01-10 05:52:00,30.5,22.9,30.18,ENE,76,0.0,0.0,73,0.00,,,0.00,0,Wunderground v.1.15,2013-01-10 03:52:00,
2013-01-10 06:02:00,30.2,22.6,30.19,ENE,76,0.0,0.0,73,0.00,,,0.00,0,Wunderground v.1.15,2013-01-10 04:02:00,
2013-01-10 06:12:00,30.2,22.9,30.19,NNE,30,1.0,1.0,74,0.00,,,0.00,0,Wunderground v.1.15,2013-01-10 04:12:00,
2013-01-10 06:22:00,30.4,23.4,30.19,East,94,0.0,0.0,75,0.00,,,0.00,0,Wunderground v.1.15,2013-01-10 04:22:00,
2013-01-10 06:32:00,30.6,23.6,30.19,East,94,0.0,0.0,75,0.00,,,0.00,0,Wunderground v.1.15,2013-01-10 04:32:00,
2013-01-10 06:42:00,30.4,23.7,30.19,North,5,0.0,0.0,76,0.00,,,0.00,0,Wunderground v.1.15,2013-01-10 04:42:00,
2013-01-10 06:52:00,30.5,24.1,30.19,North,360,1.0,1.0,77,0.00,,,0.00,0,Wunderground v.1.15,2013-01-10 04:52:00,
2013-01-10 07:02:00,30.7,24.7,30.20,NNW,346,1.0,1.0,78,0.00,,,0.00,0,Wunderground v.1.15,2013-01-10 05:02:00,
2013-01-10 07:12:00,30.8,24.7,30.19,NNW,346,0.0,0.0,78,0.00,,,0.00,0,Wunderground v.1.15,2013-01-10 05:12:00,
2013-01-10 07:22:00,31.1,25.3,30.20,East,82,0.0,0.0,79,0.00,,,0.00,0,Wunderground v.1.15,2013-01-10 05:22:00,
2013-01-10 07:52:00,31.4,25.3,30.19,SSE,154,0.0,0.0,78,0.00,,,0.00,7,Wunderground v.1.15,2013-01-10 05:52:00,
2013-01-10 08:02:00,31.4,25.3,30.20,SE,144,1.0,1.0,78,0.00,,,0.00,12,Wunderground v.1.15,2013-01-10 06:02:00,
2013-01-10 08:12:00,31.5,25.4,30.20,SSE,157,0.0,0.0,78,0.00,,,0.00,21,Wunderground v.1.15,2013-01-10 06:12:00,
2013-01-10 08:22:00,31.6,25.8,30.20,ESE,121,0.0,0.0,79,0.00,,,0.00,23,Wunderground v.1.15,2013-01-10 06:22:00,
2013-01-10 08:32:00,31.7,25.6,30.20,ESE,121,0.0,0.0,78,0.00,,,0.00,25,Wunderground v.1.15,2013-01-10 06:32:00,
2013-01-10 08:42:00,31.9,26.1,30.20,SE,146,0.0,0.0,79,0.00,,,0.00,30,Wunderground v.1.15,2013-01-10 06:42:00,
2013-01-10 08:52:00,32.0,26.2,30.19,SSE,160,1.0,1.0,79,0.00,,,0.00,21,Wunderground v.1.15,2013-01-10 06:52:00,
2013-01-10 09:02:00,32.3,26.5,30.20,SSE,160,0.0,0.0,79,0.00,,,0.00,19,Wunderground v.1.15,2013-01-10 07:02:00,
2013-01-10 09:12:00,32.5,27.0,30.20,ESE,115,0.0,0.0,80,0.00,,,0.00,33,Wunderground v.1.15,2013-01-10 07:12:00,
2013-01-10 09:22:00,32.7,26.9,30.20,ESE,115,0.0,0.0,79,0.00,,,0.00,58,Wunderground v.1.15,2013-01-10 07:22:00,
2013-01-10 09:32:00,33.1,27.3,30.20,South,186,0.0,0.0,79,0.00,,,0.00,58,Wunderground v.1.15,2013-01-10 07:32:00,
2013-01-10 09:42:00,33.4,27.6,30.20,SSE,157,1.0,1.0,79,0.00,,,0.00,86,Wunderground v.1.15,2013-01-10 07:42:00,
2013-01-10 09:52:00,34.2,28.1,30.19,SSW,194,2.0,9.0,78,0.00,,,0.00,174,Wunderground v.1.15,2013-01-10 07:52:00,
2013-01-10 10:02:00,35.0,27.5,30.19,SSW,211,4.0,4.0,74,0.00,,,0.00,172,Wunderground v.1.15,2013-01-10 08:02:00,
2013-01-10 10:12:00,35.6,27.1,30.19,South,190,4.0,8.0,71,0.00,,,0.00,167,Wunderground v.1.15,2013-01-10 08:12:00,
2013-01-10 10:22:00,35.7,27.6,30.19,SW,233,5.0,5.0,72,0.00,,,0.01,225,Wunderground v.1.15,2013-01-10 08:22:00,
2013-01-10 10:32:00,36.0,27.2,30.19,West,259,5.0,5.0,70,0.00,,,0.01,431,Wunderground v.1.15,2013-01-10 08:32:00,
2013-01-10 10:42:00,36.9,27.7,30.18,SSW,209,3.0,5.0,69,0.00,,,0.01,385,Wunderground v.1.15,2013-01-10 08:42:00,
2013-01-10 10:52:00,36.8,27.6,30.18,SSW,202,5.0,6.0,69,0.00,,,0.01,394,Wunderground v.1.15,2013-01-10 08:52:00,
2013-01-10 11:02:00,36.7,27.1,30.18,SW,221,6.0,6.0,68,0.00,,,0.02,417,Wunderground v.1.15,2013-01-10 09:02:00,
2013-01-10 11:12:00,36.7,27.8,30.17,SSE,161,6.0,6.0,70,0.00,,,0.02,424,Wunderground v.1.15,2013-01-10 09:12:00,
2013-01-10 11:22:00,36.7,27.5,30.17,SW,224,6.0,9.0,69,0.00,,,0.02,420,Wunderground v.1.15,2013-01-10 09:22:00,
2013-01-10 11:42:00,37.2,27.6,30.16,SW,234,5.0,7.0,68,0.00,,,0.02,438,Wunderground v.1.15,2013-01-10 09:42:00,
2013-01-10 11:52:00,37.3,27.3,30.15,SW,214,5.0,7.0,67,0.00,,,0.02,434,Wunderground v.1.15,2013-01-10 09:52:00,
2013-01-10 12:12:00,37.0,25.9,30.15,NW,308,6.0,6.0,64,0.00,,,0.02,438,Wunderground v.1.15,2013-01-10 10:12:00,
2013-01-10 12:32:00,36.9,25.5,30.14,SW,221,6.0,11.0,63,0.00,,,0.02,448,Wunderground v.1.15,2013-01-10 10:32:00,
2013-01-10 12:42:00,36.6,25.6,30.14,WSW,240,7.0,10.0,64,0.00,,,0.02,441,Wunderground v.1.15,2013-01-10 10:42:00,
2013-01-10 12:52:00,36.8,26.5,30.13,SW,215,6.0,9.0,66,0.00,,,0.02,434,Wunderground v.1.15,2013-01-10 10:52:00,
2013-01-10 13:02:00,37.2,27.6,30.13,South,184,6.0,6.0,68,0.00,,,0.02,431,Wunderground v.1.15,2013-01-10 11:02:00,
2013-01-10 13:12:00,37.2,26.5,30.12,SW,218,6.0,14.0,65,0.00,,,0.02,431,Wunderground v.1.15,2013-01-10 11:12:00,
2013-01-10 13:22:00,37.3,26.6,30.12,SSW,207,6.0,6.0,65,0.00,,,0.03,413,Wunderground v.1.15,2013-01-10 11:22:00,
2013-01-10 13:32:00,37.4,26.7,30.11,WSW,251,6.0,6.0,65,0.00,,,0.03,373,Wunderground v.1.15,2013-01-10 11:32:00,
2013-01-10 13:42:00,37.5,26.8,30.11,SSE,148,6.0,9.0,65,0.00,,,0.03,399,Wunderground v.1.15,2013-01-10 11:42:00,
2013-01-10 14:02:00,38.1,26.6,30.11,SSW,209,5.0,8.0,63,0.00,,,0.03,301,Wunderground v.1.15,2013-01-10 12:02:00,
2013-01-10 14:12:00,38.1,26.6,30.10,SSW,198,5.0,5.0,63,0.00,,,0.03,287,Wunderground v.1.15,2013-01-10 12:12:00,
2013-01-10 14:22:00,38.0,26.1,30.10,SSW,209,6.0,8.0,62,0.00,,,0.03,262,Wunderground v.1.15,2013-01-10 12:22:00,
2013-01-10 14:32:00,38.0,26.1,30.10,SSW,200,6.0,7.0,62,0.00,,,0.03,234,Wunderground v.1.15,2013-01-10 12:32:00,
2013-01-10 14:42:00,38.4,26.1,30.10,South,175,5.0,7.0,61,0.00,,,0.03,253,Wunderground v.1.15,2013-01-10 12:42:00,
2013-01-10 15:02:00,38.6,25.5,30.10,South,173,5.0,5.0,59,0.00,,,0.03,227,Wunderground v.1.15,2013-01-10 13:02:00,
2013-01-10 15:12:00,38.3,24.4,30.10,SW,227,6.0,6.0,57,0.00,,,0.03,213,Wunderground v.1.15,2013-01-10 13:12:00,
2013-01-10 15:22:00,38.5,24.1,30.10,SSE,157,6.0,7.0,56,0.00,,,0.03,207,Wunderground v.1.15,2013-01-10 13:22:00,
2013-01-10 15:42:00,38.5,24.1,30.10,WSW,240,5.0,5.0,56,0.00,,,0.03,104,Wunderground v.1.15,2013-01-10 13:42:00,
2013-01-10 15:52:00,38.5,24.6,30.10,SW,215,4.0,7.0,57,0.00,,,0.03,102,Wunderground v.1.15,2013-01-10 13:52:00,
2013-01-10 16:02:00,38.4,25.7,30.10,SSW,203,5.0,5.0,60,0.00,,,0.03,69,Wunderground v.1.15,2013-01-10 14:02:00,
2013-01-10 16:12:00,38.2,25.5,30.09,SW,216,5.0,5.0,60,0.00,,,0.03,46,Wunderground v.1.15,2013-01-10 14:12:00,
2013-01-10 16:22:00,38.1,25.4,30.09,West,265,4.0,4.0,60,0.00,,,0.03,33,Wunderground v.1.15,2013-01-10 14:22:00,
2013-01-10 16:32:00,38.0,24.9,30.09,SW,217,5.0,5.0,59,0.00,,,0.03,25,Wunderground v.1.15,2013-01-10 14:32:00,
2013-01-10 16:42:00,38.1,25.0,30.08,ENE,77,5.0,5.0,59,0.00,,,0.03,12,Wunderground v.1.15,2013-01-10 14:42:00,
2013-01-10 16:52:00,38.1,25.0,30.08,SSW,203,5.0,7.0,59,0.00,,,0.03,0,Wunderground v.1.15,2013-01-10 14:52:00,
2013-01-10 17:02:00,38.0,26.1,30.08,SSW,197,4.0,5.0,62,0.00,,,0.03,0,Wunderground v.1.15,2013-01-10 15:02:00,
2013-01-10 17:12:00,38.1,25.8,30.08,SSW,209,5.0,5.0,61,0.00,,,0.03,0,Wunderground v.1.15,2013-01-10 15:12:00,
2013-01-10 17:22:00,38.3,25.6,30.08,SW,219,6.0,6.0,60,0.00,,,0.03,0,Wunderground v.1.15,2013-01-10 15:22:00,
2013-01-10 17:32:00,38.4,26.5,30.07,SW,218,5.0,7.0,62,0.00,,,0.03,0,Wunderground v.1.15,2013-01-10 15:32:00,
2013-01-10 18:12:00,39.0,27.1,30.07,ESE,103,6.0,6.0,62,0.00,,,0.03,0,Wunderground v.1.15,2013-01-10 16:12:00,
2013-01-10 18:22:00,39.1,26.4,30.07,SSW,195,7.0,7.0,60,0.00,,,0.03,0,Wunderground v.1.15,2013-01-10 16:22:00,
2013-01-10 18:32:00,39.1,26.8,30.07,SW,222,5.0,8.0,61,0.00,,,0.03,0,Wunderground v.1.15,2013-01-10 16:32:00,
2013-01-10 18:42:00,39.1,27.2,30.07,ESE,121,5.0,5.0,62,0.00,,,0.03,0,Wunderground v.1.15,2013-01-10 16:42:00,
2013-01-10 18:52:00,39.2,27.3,30.07,SSW,209,4.0,6.0,62,0.00,,,0.03,0,Wunderground v.1.15,2013-01-10 16:52:00,
2013-01-10 19:02:00,39.2,27.7,30.07,ESE,123,4.0,8.0,63,0.00,,,0.03,0,Wunderground v.1.15,2013-01-10 17:02:00,
2013-01-10 19:12:00,39.6,27.6,30.07,SSW,207,5.0,5.0,62,0.00,,,0.03,0,Wunderground v.1.15,2013-01-10 17:12:00,
2013-01-10 19:22:00,39.9,28.3,30.07,WSW,245,5.0,5.0,63,0.00,,,0.03,0,Wunderground v.1.15,2013-01-10 17:22:00,
2013-01-10 19:32:00,39.9,27.5,30.07,SSW,208,4.0,9.0,61,0.00,,,0.03,0,Wunderground v.1.15,2013-01-10 17:32:00,
2013-01-10 19:42:00,40.0,27.6,30.07,SSW,211,7.0,7.0,61,0.00,,,0.03,0,Wunderground v.1.15,2013-01-10 17:42:00,
2013-01-10 20:02:00,40.1,27.7,30.06,South,178,6.0,6.0,61,0.00,,,0.03,0,Wunderground v.1.15,2013-01-10 18:02:00,
2013-01-10 20:12:00,40.2,28.2,30.06,SW,225,6.0,6.0,62,0.00,,,0.03,0,Wunderground v.1.15,2013-01-10 18:12:00,
2013-01-10 20:22:00,40.4,28.4,30.06,SSW,208,5.0,6.0,62,0.00,,,0.03,0,Wunderground v.1.15,2013-01-10 18:22:00,
2013-01-10 20:32:00,40.4,27.6,30.06,South,173,6.0,9.0,60,0.00,,,0.03,0,Wunderground v.1.15,2013-01-10 18:32:00,
2013-01-10 20:42:00,40.5,28.1,30.06,SSW,196,7.0,8.0,61,0.00,,,0.03,0,Wunderground v.1.15,2013-01-10 18:42:00,
2013-01-10 20:52:00,40.5,27.3,30.06,SSW,207,7.0,7.0,59,0.00,,,0.03,0,Wunderground v.1.15,2013-01-10 18:52:00,
2013-01-10 21:02:00,40.7,28.7,30.06,SSW,202,7.0,7.0,62,0.00,,,0.03,0,Wunderground v.1.15,2013-01-10 19:02:00,
2013-01-10 21:12:00,40.7,27.9,30.06,SSW,209,7.0,7.0,60,0.00,,,0.03,0,Wunderground v.1.15,2013-01-10 19:12:00,
2013-01-10 21:22:00,40.7,28.3,30.06,SE,135,7.0,7.0,61,0.00,,,0.03,0,Wunderground v.1.15,2013-01-10 19:22:00,
2013-01-10 21:32:00,40.7,28.7,30.05,SW,220,6.0,8.0,62,0.00,,,0.03,0,Wunderground v.1.15,2013-01-10 19:32:00,
2013-01-10 21:42:00,40.8,28.8,30.05,WSW,241,6.0,6.0,62,0.00,,,0.03,0,Wunderground v.1.15,2013-01-10 19:42:00,
2013-01-10 21:52:00,41.0,28.6,30.05,West,268,8.0,8.0,61,0.00,,,0.03,0,Wunderground v.1.15,2013-01-10 19:52:00,
2013-01-10 22:02:00,41.0,28.6,30.04,SW,215,6.0,9.0,61,0.00,,,0.03,0,Wunderground v.1.15,2013-01-10 20:02:00,
2013-01-10 22:12:00,41.1,28.7,30.04,SSW,197,7.0,9.0,61,0.00,,,0.03,0,Wunderground v.1.15,2013-01-10 20:12:00,
2013-01-10 22:22:00,41.1,28.7,30.04,SSW,203,6.0,7.0,61,0.00,,,0.03,0,Wunderground v.1.15,2013-01-10 20:22:00,
2013-01-10 22:32:00,41.2,28.8,30.04,SW,218,7.0,8.0,61,0.00,,,0.03,0,Wunderground v.1.15,2013-01-10 20:32:00,
2013-01-10 22:42:00,41.2,28.8,30.04,SSW,197,7.0,7.0,61,0.00,,,0.03,0,Wunderground v.1.15,2013-01-10 20:42:00,
2013-01-10 22:52:00,41.4,28.5,30.04,SW,227,7.0,8.0,60,0.00,,,0.03,0,Wunderground v.1.15,2013-01-10 20:52:00,
2013-01-10 23:12:00,41.2,28.8,30.04,SSW,205,7.0,7.0,61,0.00,,,0.03,0,Wunderground v.1.15,2013-01-10 21:12:00,
2013-01-10 23:22:00,41.2,29.2,30.05,SW,223,6.0,6.0,62,0.00,,,0.03,0,Wunderground v.1.15,2013-01-10 21:22:00,
2013-01-10 23:32:00,41.3,29.3,30.05,WSW,245,6.0,6.0,62,0.00,,,0.03,0,Wunderground v.1.15,2013-01-10 21:32:00,
2013-01-10 23:42:00,41.4,29.3,30.04,SW,229,7.0,7.0,62,0.00,,,0.03,0,Wunderground v.1.15,2013-01-10 21:42:00,
2013-01-10 23:52:00,41.5,29.4,30.04,SW,235,7.0,7.0,62,0.00,,,0.03,0,Wunderground v.1.15,2013-01-10 21:52:00,